{"data":{"norad_id":69389,"epoch":"2026-09-20T04:21:32.274720Z","epoch_age_seconds":62462,"freshness":"FRESH","line1":"1 69389U 26124H   26263.18162355  .00000104  00000+0  14287-3 0  9999","line2":"2 69389  89.0072 352.0258 0001853 117.4962 242.6377 13.51029751 14881","mean_motion":13.51029751,"eccentricity":0.0001853,"inclination_deg":89.0072,"raan_deg":352.0258,"arg_perigee_deg":117.4962,"mean_anomaly_deg":242.6377,"bstar":0.00014287,"rev_number":1488,"period_min":106.58536563937,"perigee_km":1067.0924054504,"apogee_km":1069.852118843,"semimajor_km":7446.6092621467,"source":"CELESTRAK","updated_at":"2026-09-20T09:00:24.860084Z"}}